TimeMST,TemperatureF,Dew PointF,Humidity,Sea Level PressureIn,VisibilityMPH,Wind Direction,Wind SpeedMPH,Gust SpeedMPH,PrecipitationIn,Events,Conditions,WindDirDegrees,DateUTC
12:55 AM,21.9,14.0,72,29.87,10.0,Calm,Calm,-,N/A,,Clear,0,2013-02-06 07:55:00
1:55 AM,19.9,12.9,74,29.85,10.0,ESE,3.5,-,N/A,,Clear,110,2013-02-06 08:55:00
2:55 AM,17.1,12.9,84,29.83,10.0,Calm,Calm,-,N/A,,Clear,0,2013-02-06 09:55:00
3:55 AM,17.1,14.0,88,29.83,10.0,North,4.6,-,N/A,,Clear,360,2013-02-06 10:55:00
4:55 AM,17.1,15.1,92,29.83,10.0,Calm,Calm,-,N/A,,Clear,0,2013-02-06 11:55:00
5:55 AM,19.0,15.1,85,29.85,10.0,NNW,3.5,-,N/A,,Clear,340,2013-02-06 12:55:00
6:55 AM,17.1,14.0,88,29.87,10.0,NW,3.5,-,N/A,,Clear,310,2013-02-06 13:55:00
7:55 AM,28.9,21.0,72,29.83,10.0,Calm,Calm,-,N/A,,Clear,0,2013-02-06 14:55:00
8:55 AM,48.9,23.0,36,29.78,10.0,North,10.4,-,N/A,,Clear,350,2013-02-06 15:55:00
9:55 AM,53.1,21.0,29,29.77,10.0,NNE,15.0,-,N/A,,Clear,30,2013-02-06 16:55:00
10:55 AM,55.0,21.0,27,29.78,10.0,NNE,15.0,-,N/A,,Clear,20,2013-02-06 17:55:00
11:55 AM,57.0,21.0,25,29.77,10.0,NNE,15.0,21.9,N/A,,Clear,20,2013-02-06 18:55:00
12:55 PM,57.0,21.0,25,29.76,10.0,NNE,12.7,23.0,N/A,,Clear,20,2013-02-06 19:55:00
1:55 PM,57.0,18.0,22,29.76,10.0,NNE,21.9,28.8,N/A,,Clear,20,2013-02-06 20:55:00
2:55 PM,54.0,19.0,25,29.79,10.0,NNE,18.4,28.8,N/A,,Clear,20,2013-02-06 21:55:00
3:55 PM,51.1,19.9,29,29.84,10.0,NNE,21.9,-,N/A,,Partly Cloudy,20,2013-02-06 22:55:00
4:55 PM,46.9,23.0,39,29.89,10.0,North,12.7,-,N/A,,Mostly Cloudy,360,2013-02-06 23:55:00
5:55 PM,43.0,23.0,45,29.93,10.0,North,10.4,-,N/A,,Overcast,350,2013-02-07 00:55:00
6:55 PM,43.0,27.0,53,29.97,10.0,North,19.6,26.5,N/A,,Overcast,350,2013-02-07 01:55:00
7:55 PM,41.0,27.0,57,29.97,10.0,NNW,15.0,21.9,0.00,,Overcast,340,2013-02-07 02:55:00
8:55 PM,41.0,24.1,51,29.92,10.0,North,10.4,-,0.00,,Overcast,10,2013-02-07 03:55:00
9:55 PM,39.0,23.0,53,29.94,10.0,NNW,17.3,21.9,N/A,,Overcast,340,2013-02-07 04:55:00
10:55 PM,34.0,28.0,79,29.98,10.0,NNW,15.0,25.3,N/A,,Overcast,340,2013-02-07 05:55:00
11:55 PM,36.0,25.0,64,29.95,10.0,NNW,9.2,-,0.00,,Overcast,340,2013-02-07 06:55:00